Location: Do?anlar
(36.9190°N, 29.7403°E)
Time: 05:30:50
(UTC+00:00)

Daily predictions for brighter satellites

Satellite Brightness Start Highest point End
(mag) Time Altitude Azimuth Time Altitude Azimuth Time Altitude Azimuth
IDEFIX/ARIANE 42P 3.9 00:13:39 10° N 00:16:41 32° NNW 00:16:41 32° NNW
ISS -0.4 00:23:17 12° ENE 00:23:17 12° ENE 00:23:33 10° ENE
Envisat 3.7 00:16:53 10° NNE 00:21:15 50° ENE 00:21:15 50° ENE
Iridium 4 Rocket 4.2 00:23:28 46° NE 00:23:28 46° NE 00:27:20 10° N
H-2A R/B 4.3 00:31:28 25° NE 00:31:28 25° NE 00:33:47 10° NNE
Cosmos 1763 Rocket 4.0 00:33:22 53° NNW 00:33:22 53° NNW 00:37:35 10° NNE
ADEOS II 3.0 00:29:49 10° NNE 00:34:44 40° E 00:35:39 37° SE
ADEOS Rocket 3.6 00:33:06 10° N 00:40:38 62° WNW 00:41:53 56° WSW
ALOS 2.7 00:37:27 10° NNE 00:41:29 58° ENE 00:41:29 58° ENE
CZ-2D R/B 2.2 00:37:39 10° NNE 00:42:55 69° ESE 00:43:17 66° SE
USA 281 3.7 00:51:27 42° WNW 00:51:27 42° WNW 00:56:28 10° NW
DELTA 2 R/B (1) 4.3 00:52:27 40° SE 00:52:27 40° SE 00:57:26 10° E
Cosmos 1354 Rocket 4.0 00:51:12 10° NNW 00:56:30 81° ENE 00:58:08 45° SSE
Cosmos 2360 Rocket 2.2 00:51:44 10° NNW 00:57:26 82° ENE 01:01:44 18° SSE
Cosmos 1503 Rocket 4.3 00:52:41 10° NNW 00:56:51 52° NW 00:56:51 52° NW
Cosmos 2333 Rocket 2.6 00:52:50 10° NNW 00:57:05 45° WNW 00:57:05 45° WNW
ATLAS 5 CENTAUR R/B 3.2 00:57:44 44° SSE 00:59:11 60° ESE 01:12:38 10° NE
Cosmos 540 Rocket 4.2 01:01:37 39° NW 01:01:37 39° NW 01:05:57 10° N
Cosmos 468 Rocket 3.9 01:06:35 64° W 01:06:59 67° WNW 01:12:16 10° NNE
Resurs 1-4 Rocket 2.2 01:06:33 10° N 01:11:44 56° WNW 01:12:17 54° W
Cosmos 2278 4.1 01:06:40 10° NW 01:11:11 42° W 01:11:11 42° W
H-2A R/B 3.9 01:09:07 10° NE 01:12:24 24° E 01:15:00 13° SE
Cosmos 2322 Rocket 2.1 01:07:04 10° NNW 01:12:41 68° WSW 01:15:03 35° S
CRYOSAT 2 4.5 01:18:22 23° SSE 01:21:24 75° E 01:26:17 10° N
Cosmos 1766 Rocket 3.4 01:19:07 10° N 01:23:27 86° W 01:24:44 45° S
H-2A R/B 2.1 01:21:21 10° N 01:26:27 61° WNW 01:27:58 43° SW
Cosmos 2219 Rocket 2.1 01:21:04 10° NNW 01:26:44 87° ENE 01:32:23 10° SSE
SL-16 R/B 3.8 01:22:50 10° NW 01:24:53 19° WNW 01:24:53 19° WNW
Meteor 1-11 Rocket 4.1 01:22:37 10° NNW 01:28:07 44° W 01:29:12 39° WSW
USA 267 4.3 01:24:39 10° NNE 01:30:25 34° NNW 01:34:01 20° W
SL-14 R/B 4.2 01:28:27 20° SSE 01:30:46 46° E 01:34:30 10° NNE
SL-4 R/B 2.4 01:31:42 10° NW 01:35:30 57° NE 01:39:10 10° ESE
ARGOS 3.3 01:31:10 10° NNE 01:36:33 72° ESE 01:40:54 16° S
METEOR-M 4.1 01:34:03 10° N 01:39:20 69° WNW 01:42:08 28° SSW
Gbstr 26 Del rocket 3.4 01:38:27 10° NW 01:42:05 52° NE 01:45:51 10° ESE
SL-08 R/B 4.5 01:46:21 10° N 01:52:43 88° W 01:59:02 10° S
Cosmos 372 Rocket 3.8 01:47:54 10° NNW 01:53:02 72° WSW 01:58:05 10° S
Meteor 2-4 Rocket 4.3 01:52:16 27° WSW 01:54:13 36° WNW 01:59:07 10° N
Cosmos 1655 Rocket 4.4 01:48:54 10° NNW 01:54:35 39° W 01:58:40 18° SSW
ISS -2.2 01:56:14 21° WNW 01:57:19 25° NNW 02:00:11 10° NNE
NOSS 3-4 (A) 3.9 01:51:38 10° NW 01:58:48 82° WSW 02:07:09 10° SSE
NOSS 3-4 (C) 3.9 01:52:11 10° NW 01:59:22 83° WSW 02:07:43 10° SSE
Cosmos 1244 Rocket 4.4 01:53:28 10° NNW 01:59:37 65° W 02:05:41 10° S
Cosmos 1066 Rocket 4.4 01:56:41 23° SW 01:59:47 47° WNW 02:04:56 10° N
USA 234 3.3 01:57:23 10° SE 02:03:55 83° NE 02:10:29 10° NW
Aureole 1 Rocket 3.8 01:59:52 10° NW 02:04:12 40° WSW 02:09:32 10° S
Cosmos 1461 4.1 02:03:16 19° WNW 02:04:16 21° NW 02:07:11 10° N
H-2A R/B 4.4 02:06:25 11° WNW 02:06:25 11° WNW 02:06:46 10° WNW
Cosmos 2084 Rocket 3.8 02:04:23 10° NW 02:08:18 38° WSW 02:12:15 10° S
Cosmos 1151 Rocket 2.9 02:04:33 10° S 02:08:45 86° W 02:13:00 10° N
AQUA 4.0 02:04:57 10° N 02:09:29 51° WNW 02:13:09 15° SW
Nadezhda 2 Rocket 4.4 02:03:38 10° NNW 02:09:38 61° W 02:15:37 10° S
S3M 4.2 02:05:29 10° S 02:11:49 80° E 02:18:09 10° N
Cosmos 2297 Rocket 2.4 02:06:39 10° SSW 02:12:15 71° ESE 02:17:53 10° NNE
Cosmos 1386 Rocket 4.4 02:07:44 10° N 02:13:53 82° W 02:20:09 10° S
ADEOS II 3.4 02:09:58 10° NNW 02:13:58 23° WNW 02:16:28 16° WSW
SL-16 R/B 2.5 02:10:10 10° S 02:16:24 75° WSW 02:22:42 10° NNW
Cosmos 1500 Rocket 3.8 02:12:40 10° N 02:17:04 73° E 02:21:28 10° SSE
ALOS 4.2 02:16:37 10° NW 02:18:18 12° WNW 02:19:31 11° W
Cosmos 841 Rocket 4.5 02:18:30 17° WSW 02:21:32 28° WNW 02:25:59 10° N
CZ-2D R/B 3.9 02:19:34 10° NNW 02:22:16 14° WNW 02:24:32 11° W
EXPRESS MD2 3.7 02:23:25 12° SSW 02:25:24 35° SE 02:28:36 10° ENE
COSMOS 2428 2.8 02:20:03 10° NNW 02:25:47 84° ENE 02:31:28 10° SSE
Sich 1 3.4 02:25:26 10° NNW 02:29:15 37° W 02:33:03 10° SSW
Okean 3 Rocket 4.0 02:25:19 10° NNW 02:29:30 41° W 02:33:42 10° SSW
Cosmos 1758 3.2 02:29:25 10° NNW 02:32:57 51° W 02:36:27 10° S
Cosmos 1898 Rocket 3.9 02:29:13 10° NW 02:33:58 39° WSW 02:38:43 10° S
Cosmos 1743 Rocket 3.7 02:33:41 10° N 02:38:04 78° E 02:42:24 10° S
DELTA 2 R/B (1) 3.6 02:33:08 11° WSW 02:38:27 83° NNW 02:44:01 10° ENE
Cosmos 158 Rocket 4.0 02:33:21 10° SSW 02:38:35 89° WNW 02:43:56 10° NNE
Cosmos 1937 Rocket 3.6 02:33:37 10° NNW 02:38:36 50° WSW 02:43:31 10° S
Cosmos 1805 Rocket 3.6 02:34:19 10° NNW 02:38:37 58° W 02:42:52 10° S
Cosmos 2360 Rocket 3.9 02:39:02 10° W 02:40:34 11° W 02:42:06 10° WSW
H-2A R/B 3.3 02:44:30 10° NNW 02:47:31 21° WNW 02:50:30 10° WSW
